STARLINK-34380

Last updated on Thu Jul 03 2025 00:02:06 GMT+0000 (Coordinated Universal Time)

1 64307U 25123S 25183.58335648 .00054014 00000+0 87609-3 0 9990 2 64307 69.9998 120.0778 0003330 269.2079 327.5895 15.52475834 5076
UTC large
Height (km)
Speed (km/s)
/
Latitude / Longitude
Inclination (degrees)
Orbital Period (minutes)
Azimuth
Elevation
Range (km)
Doppler Factor

Next 0 passes for location: London (51.5072 / 0.1276)

Sorry there are no passes over London.